owner,sensor,date,latitude,longitude,vertical_datum,sea_water_temperature,qcFlag 
LUMCON,ioos:station:LUMCON:102:1,2019-11-11T15:00:00Z,29.1870,-90.6093,0.0,17.42,11111222 
LUMCON,ioos:station:LUMCON:102:1,2019-11-11T15:15:00Z,29.1870,-90.6093,0.0,17.46,11111222 
LUMCON,ioos:station:LUMCON:102:1,2019-11-11T15:30:00Z,29.1870,-90.6093,0.0,17.47,11111222 
LUMCON,ioos:station:LUMCON:102:1,2019-11-11T15:45:00Z,29.1870,-90.6093,0.0,17.49,11111222 
LUMCON,ioos:station:LUMCON:102:1,2019-11-11T16:00:00Z,29.1870,-90.6093,0.0,17.53,11111222 
LUMCON,ioos:station:LUMCON:102:1,2019-11-11T16:15:00Z,29.1870,-90.6093,0.0,17.53,11111222 
LUMCON,ioos:station:LUMCON:102:1,2019-11-11T16:30:00Z,29.1870,-90.6093,0.0,17.6,11111222 
LUMCON,ioos:station:LUMCON:102:1,2019-11-11T16:45:00Z,29.1870,-90.6093,0.0,17.83,11111222 
LUMCON,ioos:station:LUMCON:102:1,2019-11-11T17:00:00Z,29.1870,-90.6093,0.0,18.15,11111222 
LUMCON,ioos:station:LUMCON:102:1,2019-11-11T17:15:00Z,29.1870,-90.6093,0.0,18.19,11111222 
LUMCON,ioos:station:LUMCON:102:1,2019-11-11T17:30:00Z,29.1870,-90.6093,0.0,18.14,11111222 
LUMCON,ioos:station:LUMCON:102:1,2019-11-11T17:45:00Z,29.1870,-90.6093,0.0,18.15,11111222 
LUMCON,ioos:station:LUMCON:102:1,2019-11-11T18:00:00Z,29.1870,-90.6093,0.0,18.21,11111222 
LUMCON,ioos:station:LUMCON:102:1,2019-11-11T18:15:00Z,29.1870,-90.6093,0.0,18.37,11111222 
LUMCON,ioos:station:LUMCON:102:1,2019-11-11T18:30:00Z,29.1870,-90.6093,0.0,18.45,11111222 
LUMCON,ioos:station:LUMCON:102:1,2019-11-11T18:45:00Z,29.1870,-90.6093,0.0,18.38,11111222 
LUMCON,ioos:station:LUMCON:102:1,2019-11-11T19:00:00Z,29.1870,-90.6093,0.0,18.28,11111222 
LUMCON,ioos:station:LUMCON:102:1,2019-11-11T19:15:00Z,29.1870,-90.6093,0.0,18.25,11111222 
LUMCON,ioos:station:LUMCON:102:1,2019-11-11T19:30:00Z,29.1870,-90.6093,0.0,18.19,11111222 
LUMCON,ioos:station:LUMCON:102:1,2019-11-11T19:45:00Z,29.1870,-90.6093,0.0,18.17,11111222 
LUMCON,ioos:station:LUMCON:102:1,2019-11-11T20:00:00Z,29.1870,-90.6093,0.0,18.21,11111222 
LUMCON,ioos:station:LUMCON:102:1,2019-11-11T20:15:00Z,29.1870,-90.6093,0.0,18.24,11111222 
LUMCON,ioos:station:LUMCON:102:1,2019-11-11T20:30:00Z,29.1870,-90.6093,0.0,18.26,11111222 
LUMCON,ioos:station:LUMCON:102:1,2019-11-11T20:45:00Z,29.1870,-90.6093,0.0,18.43,11111222 
LUMCON,ioos:station:LUMCON:102:1,2019-11-11T21:00:00Z,29.1870,-90.6093,0.0,18.62,11111222 
LUMCON,ioos:station:LUMCON:102:1,2019-11-11T21:15:00Z,29.1870,-90.6093,0.0,19.12,11111222 
LUMCON,ioos:station:LUMCON:102:1,2019-11-11T21:30:00Z,29.1870,-90.6093,0.0,18.83,11111222 
LUMCON,ioos:station:LUMCON:102:1,2019-11-11T21:45:00Z,29.1870,-90.6093,0.0,18.82,11111222 
LUMCON,ioos:station:LUMCON:102:1,2019-11-11T22:00:00Z,29.1870,-90.6093,0.0,18.73,11111222 
LUMCON,ioos:station:LUMCON:102:1,2019-11-11T22:15:00Z,29.1870,-90.6093,0.0,18.47,11111222 
LUMCON,ioos:station:LUMCON:102:1,2019-11-11T22:30:00Z,29.1870,-90.6093,0.0,18.65,11111222 
LUMCON,ioos:station:LUMCON:102:1,2019-11-11T22:45:00Z,29.1870,-90.6093,0.0,19.11,11111222 
LUMCON,ioos:station:LUMCON:102:1,2019-11-11T23:00:00Z,29.1870,-90.6093,0.0,19.12,11111222 
LUMCON,ioos:station:LUMCON:102:1,2019-11-11T23:15:00Z,29.1870,-90.6093,0.0,19.0,11111222 
LUMCON,ioos:station:LUMCON:102:1,2019-11-11T23:30:00Z,29.1870,-90.6093,0.0,19.0,11111222 
LUMCON,ioos:station:LUMCON:102:1,2019-11-11T23:45:00Z,29.1870,-90.6093,0.0,19.04,11111222 
LUMCON,ioos:station:LUMCON:102:1,2019-11-12T00:00:00Z,29.1870,-90.6093,0.0,19.17,11111222 
LUMCON,ioos:station:LUMCON:102:1,2019-11-12T00:15:00Z,29.1870,-90.6093,0.0,19.22,11111222 
LUMCON,ioos:station:LUMCON:102:1,2019-11-12T00:30:00Z,29.1870,-90.6093,0.0,19.23,11111222 
LUMCON,ioos:station:LUMCON:102:1,2019-11-12T00:45:00Z,29.1870,-90.6093,0.0,19.18,11111222 
LUMCON,ioos:station:LUMCON:102:1,2019-11-12T01:00:00Z,29.1870,-90.6093,0.0,19.02,11111222 
LUMCON,ioos:station:LUMCON:102:1,2019-11-12T01:15:00Z,29.1870,-90.6093,0.0,19.08,11111222 
LUMCON,ioos:station:LUMCON:102:1,2019-11-12T01:30:00Z,29.1870,-90.6093,0.0,19.09,11111222 
LUMCON,ioos:station:LUMCON:102:1,2019-11-12T01:45:00Z,29.1870,-90.6093,0.0,19.09,11111222 
LUMCON,ioos:station:LUMCON:102:1,2019-11-12T02:00:00Z,29.1870,-90.6093,0.0,18.99,11111222 
LUMCON,ioos:station:LUMCON:102:1,2019-11-12T02:15:00Z,29.1870,-90.6093,0.0,18.88,11111222 
LUMCON,ioos:station:LUMCON:102:1,2019-11-12T02:30:00Z,29.1870,-90.6093,0.0,18.67,11111222 
LUMCON,ioos:station:LUMCON:102:1,2019-11-12T02:45:00Z,29.1870,-90.6093,0.0,18.59,11111222 
LUMCON,ioos:station:LUMCON:102:1,2019-11-12T03:00:00Z,29.1870,-90.6093,0.0,18.61,11111222 
LUMCON,ioos:station:LUMCON:102:1,2019-11-12T03:15:00Z,29.1870,-90.6093,0.0,18.62,11111222 
LUMCON,ioos:station:LUMCON:102:1,2019-11-12T03:30:00Z,29.1870,-90.6093,0.0,18.85,11111222 
LUMCON,ioos:station:LUMCON:102:1,2019-11-12T03:45:00Z,29.1870,-90.6093,0.0,18.85,11111222 
LUMCON,ioos:station:LUMCON:102:1,2019-11-12T04:00:00Z,29.1870,-90.6093,0.0,18.84,11111222 
LUMCON,ioos:station:LUMCON:102:1,2019-11-12T04:15:00Z,29.1870,-90.6093,0.0,18.87,11111222 
LUMCON,ioos:station:LUMCON:102:1,2019-11-12T04:30:00Z,29.1870,-90.6093,0.0,18.9,11111222 
LUMCON,ioos:station:LUMCON:102:1,2019-11-12T04:45:00Z,29.1870,-90.6093,0.0,18.86,11111222 
LUMCON,ioos:station:LUMCON:102:1,2019-11-12T05:00:00Z,29.1870,-90.6093,0.0,18.97,11111222 
LUMCON,ioos:station:LUMCON:102:1,2019-11-12T05:15:00Z,29.1870,-90.6093,0.0,18.96,11111222 
LUMCON,ioos:station:LUMCON:102:1,2019-11-12T05:30:00Z,29.1870,-90.6093,0.0,18.93,11111222 
LUMCON,ioos:station:LUMCON:102:1,2019-11-12T05:45:00Z,29.1870,-90.6093,0.0,18.83,11111222 
LUMCON,ioos:station:LUMCON:102:1,2019-11-12T06:00:00Z,29.1870,-90.6093,0.0,18.89,11111222 
LUMCON,ioos:station:LUMCON:102:1,2019-11-12T06:15:00Z,29.1870,-90.6093,0.0,18.96,11111222 
LUMCON,ioos:station:LUMCON:102:1,2019-11-12T06:30:00Z,29.1870,-90.6093,0.0,18.95,11111222 
LUMCON,ioos:station:LUMCON:102:1,2019-11-12T06:45:00Z,29.1870,-90.6093,0.0,19.02,11111222 
LUMCON,ioos:station:LUMCON:102:1,2019-11-12T07:00:00Z,29.1870,-90.6093,0.0,19.05,11111222 
LUMCON,ioos:station:LUMCON:102:1,2019-11-12T07:15:00Z,29.1870,-90.6093,0.0,19.08,11111222 
LUMCON,ioos:station:LUMCON:102:1,2019-11-12T07:30:00Z,29.1870,-90.6093,0.0,19.08,11111222 
LUMCON,ioos:station:LUMCON:102:1,2019-11-12T07:45:00Z,29.1870,-90.6093,0.0,19.09,11111222 
LUMCON,ioos:station:LUMCON:102:1,2019-11-12T08:00:00Z,29.1870,-90.6093,0.0,19.09,11111222 
LUMCON,ioos:station:LUMCON:102:1,2019-11-12T08:15:00Z,29.1870,-90.6093,0.0,18.78,11111222 
LUMCON,ioos:station:LUMCON:102:1,2019-11-12T08:30:00Z,29.1870,-90.6093,0.0,18.67,11111222 
LUMCON,ioos:station:LUMCON:102:1,2019-11-12T08:45:00Z,29.1870,-90.6093,0.0,18.68,11111222 
LUMCON,ioos:station:LUMCON:102:1,2019-11-12T09:00:00Z,29.1870,-90.6093,0.0,18.64,11111222 
LUMCON,ioos:station:LUMCON:102:1,2019-11-12T09:15:00Z,29.1870,-90.6093,0.0,18.57,11111222 
LUMCON,ioos:station:LUMCON:102:1,2019-11-12T09:30:00Z,29.1870,-90.6093,0.0,18.4,11111222 
LUMCON,ioos:station:LUMCON:102:1,2019-11-12T09:45:00Z,29.1870,-90.6093,0.0,18.22,11111222 
LUMCON,ioos:station:LUMCON:102:1,2019-11-12T10:00:00Z,29.1870,-90.6093,0.0,18.13,11111222 
LUMCON,ioos:station:LUMCON:102:1,2019-11-12T10:15:00Z,29.1870,-90.6093,0.0,18.26,11111222 
LUMCON,ioos:station:LUMCON:102:1,2019-11-12T10:30:00Z,29.1870,-90.6093,0.0,18.28,11111222 
LUMCON,ioos:station:LUMCON:102:1,2019-11-12T10:45:00Z,29.1870,-90.6093,0.0,18.22,11111222 
LUMCON,ioos:station:LUMCON:102:1,2019-11-12T11:00:00Z,29.1870,-90.6093,0.0,18.12,11111222 
LUMCON,ioos:station:LUMCON:102:1,2019-11-12T11:15:00Z,29.1870,-90.6093,0.0,18.02,11111222 
LUMCON,ioos:station:LUMCON:102:1,2019-11-12T11:30:00Z,29.1870,-90.6093,0.0,17.89,11111222 
LUMCON,ioos:station:LUMCON:102:1,2019-11-12T11:45:00Z,29.1870,-90.6093,0.0,17.86,11111222 
LUMCON,ioos:station:LUMCON:102:1,2019-11-12T12:00:00Z,29.1870,-90.6093,0.0,17.69,11111222 
LUMCON,ioos:station:LUMCON:102:1,2019-11-12T12:15:00Z,29.1870,-90.6093,0.0,17.65,11111222 
LUMCON,ioos:station:LUMCON:102:1,2019-11-12T12:30:00Z,29.1870,-90.6093,0.0,17.61,11111222 
LUMCON,ioos:station:LUMCON:102:1,2019-11-12T12:45:00Z,29.1870,-90.6093,0.0,17.7,11111222 
LUMCON,ioos:station:LUMCON:102:1,2019-11-12T13:00:00Z,29.1870,-90.6093,0.0,17.97,11111222 
LUMCON,ioos:station:LUMCON:102:1,2019-11-12T13:15:00Z,29.1870,-90.6093,0.0,17.96,11111222 
LUMCON,ioos:station:LUMCON:102:1,2019-11-12T13:30:00Z,29.1870,-90.6093,0.0,17.85,11111222 
LUMCON,ioos:station:LUMCON:102:1,2019-11-12T13:45:00Z,29.1870,-90.6093,0.0,17.73,11111222 
LUMCON,ioos:station:LUMCON:102:1,2019-11-12T14:00:00Z,29.1870,-90.6093,0.0,17.3,11111222 
LUMCON,ioos:station:LUMCON:102:1,2019-11-12T14:15:00Z,29.1870,-90.6093,0.0,17.1,11111222 
LUMCON,ioos:station:LUMCON:102:1,2019-11-12T14:30:00Z,29.1870,-90.6093,0.0,16.91,11111222 
LUMCON,ioos:station:LUMCON:102:1,2019-11-12T14:45:00Z,29.1870,-90.6093,0.0,16.67,11111222 
LUMCON,ioos:station:LUMCON:102:1,2019-11-12T15:00:00Z,29.1870,-90.6093,0.0,16.46,11111222 
LUMCON,ioos:station:LUMCON:102:1,2019-11-12T15:15:00Z,29.1870,-90.6093,0.0,16.2,11111222 
LUMCON,ioos:station:LUMCON:102:1,2019-11-12T15:30:00Z,29.1870,-90.6093,0.0,16.06,11111222 
LUMCON,ioos:station:LUMCON:102:1,2019-11-12T15:45:00Z,29.1870,-90.6093,0.0,15.97,11111222 
LUMCON,ioos:station:LUMCON:102:1,2019-11-12T16:00:00Z,29.1870,-90.6093,0.0,15.7,11111222 
LUMCON,ioos:station:LUMCON:102:1,2019-11-12T16:15:00Z,29.1870,-90.6093,0.0,15.77,11111222 
LUMCON,ioos:station:LUMCON:102:1,2019-11-12T16:30:00Z,29.1870,-90.6093,0.0,15.73,11111222 
LUMCON,ioos:station:LUMCON:102:1,2019-11-12T16:45:00Z,29.1870,-90.6093,0.0,15.43,11111222 
LUMCON,ioos:station:LUMCON:102:1,2019-11-12T17:00:00Z,29.1870,-90.6093,0.0,15.43,11111222 
LUMCON,ioos:station:LUMCON:102:1,2019-11-12T17:15:00Z,29.1870,-90.6093,0.0,15.57,11111222 
LUMCON,ioos:station:LUMCON:102:1,2019-11-12T17:30:00Z,29.1870,-90.6093,0.0,15.49,11111222 
LUMCON,ioos:station:LUMCON:102:1,2019-11-12T17:45:00Z,29.1870,-90.6093,0.0,15.33,11111222 
LUMCON,ioos:station:LUMCON:102:1,2019-11-12T18:00:00Z,29.1870,-90.6093,0.0,15.4,11111222 
LUMCON,ioos:station:LUMCON:102:1,2019-11-12T18:15:00Z,29.1870,-90.6093,0.0,15.52,11111222 
LUMCON,ioos:station:LUMCON:102:1,2019-11-12T18:30:00Z,29.1870,-90.6093,0.0,15.89,11111222 
LUMCON,ioos:station:LUMCON:102:1,2019-11-12T18:45:00Z,29.1870,-90.6093,0.0,15.77,11111222 
LUMCON,ioos:station:LUMCON:102:1,2019-11-12T19:00:00Z,29.1870,-90.6093,0.0,15.86,11111222 
LUMCON,ioos:station:LUMCON:102:1,2019-11-12T19:15:00Z,29.1870,-90.6093,0.0,15.82,11111222 
LUMCON,ioos:station:LUMCON:102:1,2019-11-12T19:30:00Z,29.1870,-90.6093,0.0,16.02,11111222 
LUMCON,ioos:station:LUMCON:102:1,2019-11-12T19:45:00Z,29.1870,-90.6093,0.0,15.93,11111222 
LUMCON,ioos:station:LUMCON:102:1,2019-11-12T20:00:00Z,29.1870,-90.6093,0.0,16.05,11111222 
LUMCON,ioos:station:LUMCON:102:1,2019-11-12T20:15:00Z,29.1870,-90.6093,0.0,16.16,11111222 
LUMCON,ioos:station:LUMCON:102:1,2019-11-12T20:30:00Z,29.1870,-90.6093,0.0,16.23,11111222 
LUMCON,ioos:station:LUMCON:102:1,2019-11-12T20:45:00Z,29.1870,-90.6093,0.0,16.33,11111222 
LUMCON,ioos:station:LUMCON:102:1,2019-11-12T21:00:00Z,29.1870,-90.6093,0.0,16.42,11111222 
LUMCON,ioos:station:LUMCON:102:1,2019-11-12T21:15:00Z,29.1870,-90.6093,0.0,16.33,11111222 
LUMCON,ioos:station:LUMCON:102:1,2019-11-12T21:30:00Z,29.1870,-90.6093,0.0,16.14,11111222 
LUMCON,ioos:station:LUMCON:102:1,2019-11-12T21:45:00Z,29.1870,-90.6093,0.0,16.04,11111222 
LUMCON,ioos:station:LUMCON:102:1,2019-11-12T22:00:00Z,29.1870,-90.6093,0.0,16.07,11111222 
LUMCON,ioos:station:LUMCON:102:1,2019-11-12T22:15:00Z,29.1870,-90.6093,0.0,16.11,11111222 
LUMCON,ioos:station:LUMCON:102:1,2019-11-12T22:30:00Z,29.1870,-90.6093,0.0,16.15,11111222 
LUMCON,ioos:station:LUMCON:102:1,2019-11-12T22:45:00Z,29.1870,-90.6093,0.0,16.14,11111222 
LUMCON,ioos:station:LUMCON:102:1,2019-11-12T23:00:00Z,29.1870,-90.6093,0.0,16.11,11111222 
LUMCON,ioos:station:LUMCON:102:1,2019-11-12T23:15:00Z,29.1870,-90.6093,0.0,16.06,11111222 
LUMCON,ioos:station:LUMCON:102:1,2019-11-12T23:30:00Z,29.1870,-90.6093,0.0,16.02,11111222 
LUMCON,ioos:station:LUMCON:102:1,2019-11-12T23:45:00Z,29.1870,-90.6093,0.0,15.98,11111222 
LUMCON,ioos:station:LUMCON:102:1,2019-11-13T00:00:00Z,29.1870,-90.6093,0.0,15.92,11111222 
LUMCON,ioos:station:LUMCON:102:1,2019-11-13T00:15:00Z,29.1870,-90.6093,0.0,15.86,11111222 
LUMCON,ioos:station:LUMCON:102:1,2019-11-13T00:30:00Z,29.1870,-90.6093,0.0,15.81,11111222 
LUMCON,ioos:station:LUMCON:102:1,2019-11-13T00:45:00Z,29.1870,-90.6093,0.0,15.76,11111222 
LUMCON,ioos:station:LUMCON:102:1,2019-11-13T01:00:00Z,29.1870,-90.6093,0.0,15.72,11111222 
LUMCON,ioos:station:LUMCON:102:1,2019-11-13T01:15:00Z,29.1870,-90.6093,0.0,15.65,11111222 
LUMCON,ioos:station:LUMCON:102:1,2019-11-13T01:30:00Z,29.1870,-90.6093,0.0,15.63,11111222 
LUMCON,ioos:station:LUMCON:102:1,2019-11-13T01:45:00Z,29.1870,-90.6093,0.0,15.55,11111222 
LUMCON,ioos:station:LUMCON:102:1,2019-11-13T02:00:00Z,29.1870,-90.6093,0.0,15.5,11111222 
LUMCON,ioos:station:LUMCON:102:1,2019-11-13T02:15:00Z,29.1870,-90.6093,0.0,15.45,11111222 
LUMCON,ioos:station:LUMCON:102:1,2019-11-13T02:30:00Z,29.1870,-90.6093,0.0,15.39,11111222 
LUMCON,ioos:station:LUMCON:102:1,2019-11-13T02:45:00Z,29.1870,-90.6093,0.0,15.32,11111222 
LUMCON,ioos:station:LUMCON:102:1,2019-11-13T03:00:00Z,29.1870,-90.6093,0.0,15.23,11111222 
LUMCON,ioos:station:LUMCON:102:1,2019-11-13T03:15:00Z,29.1870,-90.6093,0.0,15.17,11111222 
LUMCON,ioos:station:LUMCON:102:1,2019-11-13T03:30:00Z,29.1870,-90.6093,0.0,15.18,11111222 
LUMCON,ioos:station:LUMCON:102:1,2019-11-13T03:45:00Z,29.1870,-90.6093,0.0,15.13,11111222 
LUMCON,ioos:station:LUMCON:102:1,2019-11-13T04:00:00Z,29.1870,-90.6093,0.0,15.15,11111222 
LUMCON,ioos:station:LUMCON:102:1,2019-11-13T04:15:00Z,29.1870,-90.6093,0.0,15.15,11111222 
LUMCON,ioos:station:LUMCON:102:1,2019-11-13T04:30:00Z,29.1870,-90.6093,0.0,15.11,11111222 
LUMCON,ioos:station:LUMCON:102:1,2019-11-13T04:45:00Z,29.1870,-90.6093,0.0,15.06,11111222 
LUMCON,ioos:station:LUMCON:102:1,2019-11-13T05:00:00Z,29.1870,-90.6093,0.0,15.03,11111222 
LUMCON,ioos:station:LUMCON:102:1,2019-11-13T05:15:00Z,29.1870,-90.6093,0.0,14.99,11111222 
LUMCON,ioos:station:LUMCON:102:1,2019-11-13T05:30:00Z,29.1870,-90.6093,0.0,14.96,11111222 
LUMCON,ioos:station:LUMCON:102:1,2019-11-13T05:45:00Z,29.1870,-90.6093,0.0,14.92,11111222 
LUMCON,ioos:station:LUMCON:102:1,2019-11-13T06:00:00Z,29.1870,-90.6093,0.0,14.88,11111222 
LUMCON,ioos:station:LUMCON:102:1,2019-11-13T06:15:00Z,29.1870,-90.6093,0.0,14.83,11111222 
LUMCON,ioos:station:LUMCON:102:1,2019-11-13T06:30:00Z,29.1870,-90.6093,0.0,14.76,11111222 
LUMCON,ioos:station:LUMCON:102:1,2019-11-13T06:45:00Z,29.1870,-90.6093,0.0,14.69,11111222 
LUMCON,ioos:station:LUMCON:102:1,2019-11-13T07:00:00Z,29.1870,-90.6093,0.0,14.63,11111222 
LUMCON,ioos:station:LUMCON:102:1,2019-11-13T07:15:00Z,29.1870,-90.6093,0.0,14.57,11111222 
LUMCON,ioos:station:LUMCON:102:1,2019-11-13T07:30:00Z,29.1870,-90.6093,0.0,14.52,11111222 
LUMCON,ioos:station:LUMCON:102:1,2019-11-13T07:45:00Z,29.1870,-90.6093,0.0,14.46,11111222 
LUMCON,ioos:station:LUMCON:102:1,2019-11-13T08:00:00Z,29.1870,-90.6093,0.0,14.42,11111222 
LUMCON,ioos:station:LUMCON:102:1,2019-11-13T08:15:00Z,29.1870,-90.6093,0.0,14.36,11111222 
LUMCON,ioos:station:LUMCON:102:1,2019-11-13T08:30:00Z,29.1870,-90.6093,0.0,14.27,11111222 
LUMCON,ioos:station:LUMCON:102:1,2019-11-13T08:45:00Z,29.1870,-90.6093,0.0,14.23,11111222 
LUMCON,ioos:station:LUMCON:102:1,2019-11-13T09:00:00Z,29.1870,-90.6093,0.0,14.17,11111222 
LUMCON,ioos:station:LUMCON:102:1,2019-11-13T09:15:00Z,29.1870,-90.6093,0.0,14.13,11111222 
LUMCON,ioos:station:LUMCON:102:1,2019-11-13T09:30:00Z,29.1870,-90.6093,0.0,14.06,11111222 
LUMCON,ioos:station:LUMCON:102:1,2019-11-13T09:45:00Z,29.1870,-90.6093,0.0,13.9,11111222 
LUMCON,ioos:station:LUMCON:102:1,2019-11-13T10:00:00Z,29.1870,-90.6093,0.0,13.57,11111222 
LUMCON,ioos:station:LUMCON:102:1,2019-11-13T10:15:00Z,29.1870,-90.6093,0.0,13.25,11111222 
LUMCON,ioos:station:LUMCON:102:1,2019-11-13T10:30:00Z,29.1870,-90.6093,0.0,13.05,11111222 
LUMCON,ioos:station:LUMCON:102:1,2019-11-13T10:45:00Z,29.1870,-90.6093,0.0,12.83,11111222 
LUMCON,ioos:station:LUMCON:102:1,2019-11-13T11:00:00Z,29.1870,-90.6093,0.0,12.58,11111222 
LUMCON,ioos:station:LUMCON:102:1,2019-11-13T11:15:00Z,29.1870,-90.6093,0.0,12.52,11111222 
LUMCON,ioos:station:LUMCON:102:1,2019-11-13T11:30:00Z,29.1870,-90.6093,0.0,12.46,11111222 
LUMCON,ioos:station:LUMCON:102:1,2019-11-13T11:45:00Z,29.1870,-90.6093,0.0,12.46,11111222 
LUMCON,ioos:station:LUMCON:102:1,2019-11-13T12:00:00Z,29.1870,-90.6093,0.0,12.44,11111222 
LUMCON,ioos:station:LUMCON:102:1,2019-11-13T12:15:00Z,29.1870,-90.6093,0.0,12.46,11111222 
LUMCON,ioos:station:LUMCON:102:1,2019-11-13T12:30:00Z,29.1870,-90.6093,0.0,12.3,11111222 
LUMCON,ioos:station:LUMCON:102:1,2019-11-13T12:45:00Z,29.1870,-90.6093,0.0,11.98,11111222 
LUMCON,ioos:station:LUMCON:102:1,2019-11-13T13:00:00Z,29.1870,-90.6093,0.0,11.85,11111222 
LUMCON,ioos:station:LUMCON:102:1,2019-11-13T13:15:00Z,29.1870,-90.6093,0.0,11.79,11111222 
LUMCON,ioos:station:LUMCON:102:1,2019-11-13T13:30:00Z,29.1870,-90.6093,0.0,11.71,11111222 
LUMCON,ioos:station:LUMCON:102:1,2019-11-13T13:45:00Z,29.1870,-90.6093,0.0,11.77,11111222 
LUMCON,ioos:station:LUMCON:102:1,2019-11-13T14:00:00Z,29.1870,-90.6093,0.0,11.83,11111222 
LUMCON,ioos:station:LUMCON:102:1,2019-11-13T14:15:00Z,29.1870,-90.6093,0.0,12.0,11111222 
LUMCON,ioos:station:LUMCON:102:1,2019-11-13T14:30:00Z,29.1870,-90.6093,0.0,11.85,11111222 
LUMCON,ioos:station:LUMCON:102:1,2019-11-13T14:45:00Z,29.1870,-90.6093,0.0,12.01,11111222 
LUMCON,ioos:station:LUMCON:102:1,2019-11-13T15:00:00Z,29.1870,-90.6093,0.0,11.54,11111222 
LUMCON,ioos:station:LUMCON:102:1,2019-11-13T15:15:00Z,29.1870,-90.6093,0.0,11.31,11111222 
LUMCON,ioos:station:LUMCON:102:1,2019-11-13T15:30:00Z,29.1870,-90.6093,0.0,11.36,11111222 
LUMCON,ioos:station:LUMCON:102:1,2019-11-13T15:45:00Z,29.1870,-90.6093,0.0,11.54,11111222 
LUMCON,ioos:station:LUMCON:102:1,2019-11-13T16:00:00Z,29.1870,-90.6093,0.0,12.19,11111222 
LUMCON,ioos:station:LUMCON:102:1,2019-11-13T16:15:00Z,29.1870,-90.6093,0.0,12.37,11111222 
LUMCON,ioos:station:LUMCON:102:1,2019-11-13T16:30:00Z,29.1870,-90.6093,0.0,12.51,11111222 
LUMCON,ioos:station:LUMCON:102:1,2019-11-13T16:45:00Z,29.1870,-90.6093,0.0,12.62,11111222 
LUMCON,ioos:station:LUMCON:102:1,2019-11-13T17:00:00Z,29.1870,-90.6093,0.0,12.93,11111222 
LUMCON,ioos:station:LUMCON:102:1,2019-11-13T17:15:00Z,29.1870,-90.6093,0.0,13.02,11111222 
LUMCON,ioos:station:LUMCON:102:1,2019-11-13T17:30:00Z,29.1870,-90.6093,0.0,12.48,11111222 
LUMCON,ioos:station:LUMCON:102:1,2019-11-13T17:45:00Z,29.1870,-90.6093,0.0,12.44,11111222 
LUMCON,ioos:station:LUMCON:102:1,2019-11-13T18:00:00Z,29.1870,-90.6093,0.0,12.67,11111222 
LUMCON,ioos:station:LUMCON:102:1,2019-11-13T18:15:00Z,29.1870,-90.6093,0.0,12.78,11111222 
LUMCON,ioos:station:LUMCON:102:1,2019-11-13T18:30:00Z,29.1870,-90.6093,0.0,12.51,11111222 
LUMCON,ioos:station:LUMCON:102:1,2019-11-13T18:45:00Z,29.1870,-90.6093,0.0,12.77,11111222 
LUMCON,ioos:station:LUMCON:102:1,2019-11-13T19:00:00Z,29.1870,-90.6093,0.0,12.76,11111222 
LUMCON,ioos:station:LUMCON:102:1,2019-11-13T19:15:00Z,29.1870,-90.6093,0.0,12.61,11111222 
LUMCON,ioos:station:LUMCON:102:1,2019-11-13T19:30:00Z,29.1870,-90.6093,0.0,12.61,11111222 
LUMCON,ioos:station:LUMCON:102:1,2019-11-13T19:45:00Z,29.1870,-90.6093,0.0,13.09,11111222 
LUMCON,ioos:station:LUMCON:102:1,2019-11-13T20:00:00Z,29.1870,-90.6093,0.0,13.14,11111222 
LUMCON,ioos:station:LUMCON:102:1,2019-11-13T20:15:00Z,29.1870,-90.6093,0.0,13.34,11111222 
LUMCON,ioos:station:LUMCON:102:1,2019-11-13T20:30:00Z,29.1870,-90.6093,0.0,13.52,11111222 
LUMCON,ioos:station:LUMCON:102:1,2019-11-13T20:45:00Z,29.1870,-90.6093,0.0,13.61,11111222 
LUMCON,ioos:station:LUMCON:102:1,2019-11-13T21:00:00Z,29.1870,-90.6093,0.0,13.63,11111222 
LUMCON,ioos:station:LUMCON:102:1,2019-11-13T21:15:00Z,29.1870,-90.6093,0.0,13.62,11111222 
LUMCON,ioos:station:LUMCON:102:1,2019-11-13T21:30:00Z,29.1870,-90.6093,0.0,13.63,11111222 
LUMCON,ioos:station:LUMCON:102:1,2019-11-13T21:45:00Z,29.1870,-90.6093,0.0,13.69,11111222 
LUMCON,ioos:station:LUMCON:102:1,2019-11-13T22:00:00Z,29.1870,-90.6093,0.0,13.72,11111222 
LUMCON,ioos:station:LUMCON:102:1,2019-11-13T22:15:00Z,29.1870,-90.6093,0.0,13.78,11111222 
LUMCON,ioos:station:LUMCON:102:1,2019-11-13T22:30:00Z,29.1870,-90.6093,0.0,13.81,11111222 
LUMCON,ioos:station:LUMCON:102:1,2019-11-13T22:45:00Z,29.1870,-90.6093,0.0,13.76,11111222 
LUMCON,ioos:station:LUMCON:102:1,2019-11-13T23:00:00Z,29.1870,-90.6093,0.0,13.8,11111222 
LUMCON,ioos:station:LUMCON:102:1,2019-11-13T23:15:00Z,29.1870,-90.6093,0.0,13.86,11111222 
LUMCON,ioos:station:LUMCON:102:1,2019-11-13T23:30:00Z,29.1870,-90.6093,0.0,13.81,11111222 
LUMCON,ioos:station:LUMCON:102:1,2019-11-13T23:45:00Z,29.1870,-90.6093,0.0,13.85,11111222 
LUMCON,ioos:station:LUMCON:102:1,2019-11-14T00:00:00Z,29.1870,-90.6093,0.0,13.88,11111222 
LUMCON,ioos:station:LUMCON:102:1,2019-11-14T00:15:00Z,29.1870,-90.6093,0.0,14.17,11111222 
LUMCON,ioos:station:LUMCON:102:1,2019-11-14T00:30:00Z,29.1870,-90.6093,0.0,13.83,11111222 
LUMCON,ioos:station:LUMCON:102:1,2019-11-14T00:45:00Z,29.1870,-90.6093,0.0,13.93,11111222 
LUMCON,ioos:station:LUMCON:102:1,2019-11-14T01:00:00Z,29.1870,-90.6093,0.0,13.87,11111222 
LUMCON,ioos:station:LUMCON:102:1,2019-11-14T01:15:00Z,29.1870,-90.6093,0.0,13.97,11111222 
LUMCON,ioos:station:LUMCON:102:1,2019-11-14T01:30:00Z,29.1870,-90.6093,0.0,14.15,11111222 
LUMCON,ioos:station:LUMCON:102:1,2019-11-14T01:45:00Z,29.1870,-90.6093,0.0,14.12,11111222 
LUMCON,ioos:station:LUMCON:102:1,2019-11-14T02:00:00Z,29.1870,-90.6093,0.0,13.9,11111222 
LUMCON,ioos:station:LUMCON:102:1,2019-11-14T02:15:00Z,29.1870,-90.6093,0.0,13.9,11111222 
LUMCON,ioos:station:LUMCON:102:1,2019-11-14T02:30:00Z,29.1870,-90.6093,0.0,14.18,11111222 
LUMCON,ioos:station:LUMCON:102:1,2019-11-14T02:45:00Z,29.1870,-90.6093,0.0,13.95,11111222 
LUMCON,ioos:station:LUMCON:102:1,2019-11-14T03:00:00Z,29.1870,-90.6093,0.0,13.96,11111222 
LUMCON,ioos:station:LUMCON:102:1,2019-11-14T03:15:00Z,29.1870,-90.6093,0.0,13.94,11111222 
LUMCON,ioos:station:LUMCON:102:1,2019-11-14T03:30:00Z,29.1870,-90.6093,0.0,13.92,11111222 
LUMCON,ioos:station:LUMCON:102:1,2019-11-14T03:45:00Z,29.1870,-90.6093,0.0,13.9,11111222 
LUMCON,ioos:station:LUMCON:102:1,2019-11-14T04:00:00Z,29.1870,-90.6093,0.0,13.9,11111222 
LUMCON,ioos:station:LUMCON:102:1,2019-11-14T04:15:00Z,29.1870,-90.6093,0.0,13.97,11111222 
LUMCON,ioos:station:LUMCON:102:1,2019-11-14T04:30:00Z,29.1870,-90.6093,0.0,14.03,11111222 
LUMCON,ioos:station:LUMCON:102:1,2019-11-14T04:45:00Z,29.1870,-90.6093,0.0,14.11,11111222 
LUMCON,ioos:station:LUMCON:102:1,2019-11-14T05:00:00Z,29.1870,-90.6093,0.0,14.11,11111222 
LUMCON,ioos:station:LUMCON:102:1,2019-11-14T05:15:00Z,29.1870,-90.6093,0.0,14.15,11111222 
LUMCON,ioos:station:LUMCON:102:1,2019-11-14T05:30:00Z,29.1870,-90.6093,0.0,14.15,11111222 
LUMCON,ioos:station:LUMCON:102:1,2019-11-14T05:45:00Z,29.1870,-90.6093,0.0,14.19,11111222 
LUMCON,ioos:station:LUMCON:102:1,2019-11-14T06:00:00Z,29.1870,-90.6093,0.0,14.17,11111222 
LUMCON,ioos:station:LUMCON:102:1,2019-11-14T06:15:00Z,29.1870,-90.6093,0.0,14.15,11111222 
LUMCON,ioos:station:LUMCON:102:1,2019-11-14T06:30:00Z,29.1870,-90.6093,0.0,14.15,11111222 
LUMCON,ioos:station:LUMCON:102:1,2019-11-14T06:45:00Z,29.1870,-90.6093,0.0,14.19,11111222 
LUMCON,ioos:station:LUMCON:102:1,2019-11-14T07:00:00Z,29.1870,-90.6093,0.0,14.12,11111222 
LUMCON,ioos:station:LUMCON:102:1,2019-11-14T07:15:00Z,29.1870,-90.6093,0.0,14.1,11111222 
LUMCON,ioos:station:LUMCON:102:1,2019-11-14T07:30:00Z,29.1870,-90.6093,0.0,14.28,11111222 
LUMCON,ioos:station:LUMCON:102:1,2019-11-14T07:45:00Z,29.1870,-90.6093,0.0,14.17,11111222 
LUMCON,ioos:station:LUMCON:102:1,2019-11-14T08:00:00Z,29.1870,-90.6093,0.0,13.82,11111222 
LUMCON,ioos:station:LUMCON:102:1,2019-11-14T08:15:00Z,29.1870,-90.6093,0.0,13.89,11111222 
LUMCON,ioos:station:LUMCON:102:1,2019-11-14T08:30:00Z,29.1870,-90.6093,0.0,13.71,11111222 